www.pogodaiklimat.ru

Погода и климат >> Архив погоды >> Аргентина >> Las Flores


ПОГОДА в Las Flores

  • Прогноз погоды в Las Flores
  • Монитор погоды в Las Flores
  • Климат города

АРХИВ ПОГОДЫ в Las Flores

Время (UTC), дата Ветер
(напр.,м/с)
 
Видим.   Явления Облачность Т
(С)
Тd
(С)
f
(%)
Тe
(С)
Тes
(С)
Комфортность P
(гПа)
Po
(гПа)
Тmin
(С)
Tmax
(С)
R
(мм)
R24
(мм)
S
(см)
00 18.05 СЗ 2 15 км 3/3 750 м
[Sc]
+9.1 +5.8 80 +7 +7 1015.7 1011.3 +9.0 +12.0
09 18.05 штиль 0 15 км ясно +6.0 +4.9 93 +5 +5 1015.7 1011.3
12 18.05 З 3 15 км 8/4 750 м
[Sc diur, vesp Cs]
+8.2 +6.0 86 +5 +6 1017.0 1012.5 +6.0 +9.1
15 18.05 ЮЗ 2 15 км 6/4 750 м
[Sc diur, vesp Ci]
+12.4 +8.2 76 +12 +15 1015.7 1011.3
18 18.05 ЮЗ 2 15 км 5/0
[Ci]
+16.3 +11.6 74 +16 +20 1014.5 1010.1
21 18.05 ЮЗ 2 15 км 4/0
[Ci]
+12.1 +10.2 88 +11 +11 1014.1 1009.7
00 19.05 ЮЗ 2 15 км 1/0
[Ci]
+10.1 +8.3 89 +8 +8 1017.2 1012.8 +8.2 +17.0
09 19.05 Ю 2 15 км ясно +4.0 +2.8 92 +1 +1 1019.1 1014.6
12 19.05 Ю 4 15 км ясно +8.1 +6.1 87 +5 +5 1020.4 1016.0 +3.8 +10.1
15 19.05 Ю 8 15 км 9/9 750 м
[Sc]
+12.8 +6.4 65 +10 +10 1021.7 1017.2
18 19.05 Ю 6 15 км 8/8 750 м
[Sc diur, vesp]
+14.2 +5.9 57 +12 +13 1020.4 1016.0
21 19.05 ЮВ 3 15 км 8/8 750 м
[Sc diur, vesp]
+13.0 +6.8 66 +12 +12 1021.2 1016.8
09 20.05 штиль 0 100 м туман местами ясно +3.2 +0.6 83 +2 +2 1019.5 1015.0
12 20.05 Ю 2 15 км {туман} 5/0
[Ac trans Ci]
+4.2 +3.2 93 +1 +2 1018.6 1014.2 +3.0 +11.2
15 20.05 СЗ 2 15 км 6/6 750 м
[Sc diur, vesp]
+14.4 +11.6 83 +14 +16 1018.1 1013.7
18 20.05 СЗ 2 15 км 6/0
[Cs]
+15.0 +9.2 68 +15 +18 1015.4 1010.9
21 20.05 СЗ 2 15 км 9/0
[Ac trans]
+12.5 +8.1 75 +12 +12 1015.5 1011.0
09 21.05 СЗ 3 15 км 10/10 750 м
[Sc]
+10.2 +7.7 84 +8 +8 1015.5 1011.0
15 21.05 Ю 2 15 км 4/4 750 м
[Cu hum]
+14.0 +6.9 62 +14 +17 1017.3 1012.9
18 21.05 Ю 5 15 км 5/5 750 м
[Cu hum]
+15.4 +8.6 64 +14 +15 1016.4 1012.0
21 21.05 Ю 3 15 км 3/3 750 м
[Cu hum]
+11.6 +6.4 70 +10 +10 1016.5 1012.1
00 22.05 Ю 1 15 км ясно +6.0 +3.1 82 +5 +5 1019.5 1015.0 +6.0 +16.0
09 22.05 Ю 2 15 км ясно +2.3 +1.0 91 -1 -1 1020.6 1016.1
12 22.05 Ю 2 15 км 3/0
[Ci]
+1.8 -0.1 87 -2 -1 1021.5 1017.0 +0.7 +6.0
15 22.05 Ю 2 15 км ясно +13.0 +2.9 50 +12 +18 1021.1 1016.6
18 22.05 Ю 2 15 км 3/0
[Ci]
+16.0 +4.4 46 +16 +20 1019.3 1014.9
21 22.05 Ю 1 15 км 1/0
[Ci]
+10.0 +2.0 58 +10 +10 1018.6 1014.1
00 23.05 Ю 1 15 км ясно +6.4 +2.8 78 +5 +5 1019.5 1015.0 +1.8 +16.5
09 23.05 Ю 2 15 км 5/0
[Ci]
-1.2 -2.1 94 -5 -5 1021.1 1016.6
12 23.05 штиль 0 15 км 5/0
[Ci]
-0.2 -1.3 92 -1 -1 1022.1 1017.6 -1.5 +6.4
15 23.05 Ю 2 15 км 4/0
[Ci]
+13.4 +2.3 47 +13 +18 1022.8 1018.4
18 23.05 Ю 2 15 км 3/0
[Ci]
+16.2 +3.2 42 +16 +20 1022.1 1017.6
21 23.05 штиль 0 15 км 3/0
[Ac trans Ci]
+13.0 +4.1 55 +13 +13 1022.2 1017.7
00 24.05 штиль 0 15 км ясно +6.4 +3.3 81 +6 +6 1022.2 1017.7 -0.2 +17.0
09 24.05 штиль 0 15 км ясно +3.0 +0.9 86 +2 +2 1023.2 1018.8
12 24.05 Ю 2 15 км ясно +5.5 +4.1 91 +3 +3 1024.3 1019.8 +2.0 +6.4
15 24.05 Ю 2 15 км ясно +16.6 +7.0 53 +17 +23 1024.3 1020.0
18 24.05 СЗ 2 15 км 4/0
[Ci]
+19.4 +11.1 59 +21 +25 комфорт 1022.2 1017.8
21 24.05 СЗ 2 15 км 4/0
[Ci]
+17.3 +7.2 51 +18 +18 1020.7 1016.4

 

Местоположение метеостанции Las Flores (Аргентина): широта -36.07 долгота -59.10 высота над уровнем моря 38 м.

В архиве по умолчанию представлена погода в Las Flores за последнюю неделю. Архивные данные за месяц целиком и за предыдущие месяцы, начиная с января 2011 года, Вы можете получить, выбрав интересующий диапазон дат из раскрывающегося списка и нажав кнопку "Ввод!".


*Определитесь, кто Вы:
робот инопланетянин человек

Внимание! Время в таблицах - всемирное. Для получения местного времени необходимо прибавить поправку, которая в Las Flores равна -3 ч.

Смотрите также архив погоды в соседних городах и на ближайших метеорологических станциях:

Погода в Azul (Аргентина) (110 км)
Погода в Dolores (Аргентина) (127 км)
Погода в Tandil (Аргентина) (130 км)
Погода в Ezeiza (Аргентина) (149 км)
Погода в La Plata (Аргентина) (164 км)
Погода в Buenos Aires (Аргентина) (175 км)
Погода в Bolivar (Аргентина) (178 км)
Погода в Buenos Aires Aeropuerto (Аргентина) (179 км)
Погода в Colonia (Уругвай) (214 км)
Погода в Junin (Аргентина) (236 км)

Пояснения к столбцам:

Ветер - указаны скорость ветра в м/с - средняя за 10 мин, порывы в срок и между сроками (в фигурных скобках) и направление, откуда дует ветер: С - северный, СВ - северо-восточный, В - восточный, ЮВ - юго-восточный, Ю - южный, ЮЗ - юго-западный, З - западный, СЗ - северо-западный.
Видимость - горизонтальная дальность видимости в метрах или километрах. При видимости от 1 до 10 км при отсутствии осадков обычно наблюдается дымка, при ухудшении видимости до 1 км и менее - туман. В сухую погоду видимость может ухудшаться дымом, пылью или мглою.
Явления - указаны атмосферные явления, наблюдавшиеся в срок или в последний час перед сроком; фигурными скобками обозначены явления, наблюдавшиеся между сроками (за 1-3 часа до срока); квадратными скобками обозначены град или гололедные отложения с указанием их диаметра в мм.
Облачность - указаны через наклонную черту общая и нижняя облачность в баллах и высота нижней границы облаков в метрах; квадратными скобками обозначены формы облаков: Ci - перистые, Cs - перисто-слоистые, Cc - перисто-кучевые, Ac - высококучевые, As - высокослоистые, Sc - слоисто-кучевые, Ns - слоисто-дождевые, Cu - кучевые, Cb - кучево-дождевые. Подробнее классификацию облаков см. в Атласе облаков (PDF).
T - Температура воздуха - температура, измеренная на высоте 2 м над землей.
Td - Температура точки росы - температура, при понижении до которой содержащийся в воздухе водяной пар достигнет насыщения.
f - Относительная влажность воздуха - влажноcть воздуха, измеренная на высоте 2 м над землей.
Te - Эффективная температура - температура, которую ощущает одетый по сезону человек в тени. Характеристика душности погоды. При расчете учитывается влияние влажности воздуха и скорости ветра на теплоощущения человека.
Tes - Эффективная температура на солнце - температура, которую ощущает человек, с поправкой на солнечный нагрев. Характеристика знойности погоды. Зависит от высоты солнца над горизонтом, облачности и скорости ветра. Ночью, в пасмурную погоду, а также при ветре 12 м/с и более поправка равна нулю.
P - Атмосферное давление - приведенное к уровню моря атмосферное давление.
Po - Атмосферное давление - измеренное на уровне метеостанции атмосферное давление.
Tmin - Минимальная температура - минимум температуры воздуха на высоте 2 м над землей.
Tmax - Максимальная температура - максимум температуры воздуха на высоте 2 м над землей.
R - Количество осадков - Количество выпавших осадков за период времени, мм. При наведении курсора мыши на число - период времени, за который выпало указанное количество осадков.
R24 - Количество осадков - Количество выпавших осадков за 24 часа, мм.
S - Снежный покров - Высота снежного покрова, см. При наведении курсора мыши на число - состояние снежного покрова и степень покрытия местности в баллах.